This demonstration page uses our WeatherBlox Daily Observations layout. Learn more.

Left ArrowRight Arrow

Hourly Observations for August 16, 2018

Temp ( °F °C ) Dew Point ( °F °C ) Humidity (%) Winds ( mph kmh ) Pressure ( in mb ) Visibility ( mi km ) Precip ( " mm )
12:59 am 00:59 Mostly Cloudy 76 24.4 70 21.1 82 82 S 5 7 30.09 1019 9 14 0.00 0.00
1:59 am 01:59 Partly Cloudy 76 24.4 70 21.1 82 82 S 5 7 30.09 1019 8 13 0.00 0.00
2:59 am 02:59 Partly Cloudy 75 23.9 70 21.1 84 84 SSW 5 7 30.08 1019 8 13 0.00 0.00
3:59 am 03:59 Partly Cloudy 75 23.9 70 21.1 84 84 Calm 30.08 1019 9 14 0.00 0.00
4:59 am 04:59 Partly Cloudy 73 22.8 70 21.1 90 90 Calm 30.08 1019 8 13 0.00 0.00
5:59 am 05:59 Partly Cloudy 72 22.2 69 20.6 91 91 Calm 30.09 1019 7 11 0.00 0.00
6:59 am 06:59 Partly Cloudy 74 23.3 70 21.1 88 88 Calm 30.11 1020 7 11 0.00 0.00
7:59 am 07:59 Partly Cloudy 80 26.7 71 21.7 74 74 W 3 6 30.12 1020 8 13 0.00 0.00
8:59 am 08:59 Partly Cloudy 82 27.8 71 21.7 69 69 WNW 5 7 30.13 1020 8 13 0.00 0.00
9:59 am 09:59 Partly Cloudy 84 28.9 68 20 59 59 WSW 6 9 30.13 1020 10 16 0.00 0.00
10:59 am 10:59 Partly Cloudy 86 30 65 18.3 49 49 VRB 3 6 30.14 1021 10 16 0.00 0.00
11:59 am 11:59 Partly Cloudy 88 31.1 66 18.9 48 48 Calm 30.14 1021 10 16 0.00 0.00
12:59 pm 12:59 Mostly Cloudy 88 31.1 66 18.9 48 48 W 3 6 30.13 1020 10 16 0.00 0.00
1:59 pm 13:59 Partly Cloudy 89 31.7 68 20 50 50 NW 8 13 30.13 1020 10 16 0.00 0.00
2:59 pm 14:59 Mostly Cloudy 90 32.2 67 19.4 47 47 WNW 9 15 30.12 1020 10 16 0.00 0.00
3:59 pm 15:59 Partly Cloudy 91 32.8 68 20 47 47 NW 7 11 30.10 1019 10 16 0.00 0.00
4:59 pm 16:59 Partly Cloudy 89 31.7 66 18.9 47 47 W 7 11 30.09 1019 10 16 0.00 0.00
5:59 pm 17:59 Partly Cloudy 89 31.7 66 18.9 47 47 Calm 30.09 1019 10 16 0.00 0.00
6:59 pm 18:59 Partly Cloudy 86 30 71 21.7 61 61 SE 3 6 30.10 1019 9 14 0.00 0.00
7:59 pm 19:59 Mostly Cloudy 84 28.9 72 22.2 67 67 SE 6 9 30.11 1020 8 13 0.00 0.00
8:59 pm 20:59 Mostly Cloudy 82 27.8 74 23.3 77 77 SE 3 6 30.12 1020 8 13 0.00 0.00
9:59 pm 21:59 Partly Cloudy 80 26.7 74 23.3 82 82 SSE 5 7 30.13 1020 8 13 0.00 0.00
10:59 pm 22:59 Partly Cloudy 81 27.2 74 23.3 79 79 SSW 9 15 30.14 1021 8 13 0.00 0.00
11:59 pm 23:59 Partly Cloudy 81 27.2 72 22.2 74 74 S 7 11 30.14 1021 9 14 0.00 0.00

Powered by AerisWeather